Regional Weather Roundup
Issued by NWS

Home | Current Version | Previous Version | Text Only | Print | Product List | Glossary Off
Versions: 1 2 3 4 5 6 7 8 9 10 11 12 13 14 15 16 17 18 19 20 21 22 23 24 25 26 27 28 29 30 31 32 33 34 35 36 37 38 39 40 41 42 43 44 45 46 47 48 49 50

000
ASUS45 KSLC 011810
RWRUT

UTAH REGIONAL WEATHER ROUNDUP
NATIONAL WEATHER SERVICE SALT LAKE CITY UT
1200 PM MDT FRI AUG 01 2014

UTZ001>011-023>025-011900-

NORTHERN UTAH

CITY           SKY/WX    TMP DP  RH WIND       PRES   REMARKS
HILL AFB       SUNNY     80  49  33 E5        30.21S
LOGAN          SUNNY     78  50  37 W5        30.18F
OGDEN          SUNNY     80  49  33 CALM      30.18S
PROVO AIRPORT  MOSUNNY   77  57  50 S6        30.21F
SALT LAKE CITY MOSUNNY   82  51  34 CALM      30.16F
VERNAL         MOSUNNY   80  46  30 VRB6      30.21F
WENDOVER       SUNNY     81  45  28 SE5       30.20S
HEBER CITY     PTSUNNY   72  52  49 W3        30.26F
WEST JORDAN    SUNNY     82  57  42 CALM      30.20F

$$

UTZ012>022-026-027-011900-

SOUTHERN UTAH

CITY           SKY/WX    TMP DP  RH WIND       PRES   REMARKS
BRYCE CANYON   SUNNY     73  48  41 W7        30.39S
CEDAR CITY     SUNNY     79  48  33 VRB6      30.25S
MILFORD        SUNNY     82  50  32 MISG      30.21F
MOAB/CYNLANDS  SUNNY     80  56  43 E3        30.15F
PRICE          MOSUNNY   80  51  36 SE8       30.25S
ST GEORGE      CLEAR     90  52  27 SW5       30.07F
KANAB            N/A     82  50  32 S8        30.22F

$$

REGIONAL REPORTS     COLORADO/ARIZONA

CITY           SKY/WX    TMP DP  RH WIND       PRES   REMARKS
CRAIG, CO      MOSUNNY   75  49  39 NW10      30.29S
GRAND JUNCTION MOSUNNY   79  50  36 N3        30.19F
RIFLE          PTSUNNY   69  53  56 NE7       30.28R
MONTROSE       PTSUNNY   78  50  37 VRB6      30.27F
CORTEZ         SUNNY     78  50  37 CALM      30.26F
PAGE, AZ       SUNNY     86  49  27 VRB3      30.15F
GRAND CANYON   SUNNY     76  49  38 SW8       30.34S
KINGMAN        SUNNY     92  50  23 SW21G28   30.10F
FLAGSTAFF      MOSUNNY   74  49  41 NW8       30.36F

$$

REGIONAL REPORTS    NEVADA/IDAHO/WYOMING

CITY           SKY/WX    TMP DP  RH WIND       PRES   REMARKS
LAS VEGAS, NV  MOSUNNY   96  53  23 VRB3      29.94S HX  93
ELY            SUNNY     76  42  29 N9        30.30F
ELKO           SUNNY     77  46  33 CALM      30.23F
POCATELLO, ID  MOSUNNY   81  50  33 W6        30.20S
BURLEY         SUNNY     80  46  30 VRB3      30.17F
EVANSTON, WY   MOSUNNY   74  43  32 N8        30.36F
ROCK SPRINGS   SUNNY     77  36  22 CALM      30.34F

$$



USA.gov is the U.S. government's official web portal to all federal, state and local government web resources and services.